Newberry, MI

12:48 PM EDT on June 29, 2017 (GMT -0400)
Luce County

Weather History for KERY - October, 2013

Change the Weather History Date:

Thursday, October 31, 2013

  Actual Average Record
Temperature  
Mean Temperature 49 °F -  
Max Temperature 52 °F 49 °F 68 °F (1935)
Min Temperature 46 °F 33 °F 20 °F (1984)
Degree Days  
Heating Degree Days 16    
Moisture  
Dew Point 49 °F    
Average Humidity 99    
Maximum Humidity 100    
Minimum Humidity 85    
Precipitation  
Precipitation 0.79 in - - ()
Sea Level Pressure  
Sea Level Pressure 29.44 in    
Wind  
Wind Speed 6 mph (ESE)    
Max Wind Speed 12 mph    
Max Gust Speed -    
Visibility 3 miles    
Events Fog , Rain    
Averages and records for this station are not official NWS values.
T = Trace of Precipitation, MM = Missing Value Source: NWS Daily Summary

Daily Weather History Graph

Daily Weather History Graph

Search for Another Location

Airport or City:

Trip Planner

Search our weather history database for the weather conditions in past years. The results will help you decide how hot, cold, wet, or windy it might be!

Date:

Astronomy

Oct. 31, 2013 Rise Set
Actual Time 8:21 AM EDT 6:28 PM EDT
Civil Twilight 7:50 AM EDT 6:59 PM EDT
Nautical Twilight 7:15 AM EDT 7:35 PM EDT
Astronomical Twilight 6:40 AM EDT 8:09 PM EDT
Moon 5:00 AM EDT (10/31) 4:54 PM EDT (10/31)
Length of Visible Light 11h 08m
Length of Day
10h 06m
Waning Crescent, 10% of the Moon is Illuminated
Oct 31
Waning Crescent
Nov 3
New
Nov 10
First Quarter
Nov 17
Full
Nov 25
Last Quarter

Hourly Weather History & Observations

Time (EDT) Temp. Windchill Dew Point Humidity Pressure Visibility Wind Dir Wind Speed Gust Speed Precip Events Conditions
12:15 AM 46.6 °F - 42.3 °F 85% 29.80 in 10.0 mi SSE 8.1 mph - N/A   Overcast
12:35 AM 46.9 °F - 43.0 °F 86% 29.79 in 10.0 mi SSE 8.1 mph - N/A Rain Light Rain
12:54 AM 46.4 °F 42.4 °F 44.6 °F 93% 29.77 in 7.0 mi SSE 8.1 mph - 0.01 in Rain Rain
1:15 AM 46.8 °F - 45.1 °F 94% 29.76 in 7.0 mi SSE 9.2 mph - N/A Rain Light Rain
1:35 AM 46.8 °F - 45.3 °F 95% 29.74 in 7.0 mi SSE 9.2 mph - N/A   Overcast
1:54 AM 46.9 °F - 45.1 °F 93% 29.76 in 7.0 mi South 4.6 mph - N/A   Overcast
2:15 AM 47.3 °F - 45.5 °F 93% 29.75 in 7.0 mi SSE 6.9 mph - N/A   Overcast
2:35 AM 47.3 °F - 45.7 °F 94% 29.73 in 7.0 mi SSE 11.5 mph - N/A   Overcast
2:54 AM 47.3 °F - 46.2 °F 96% 29.72 in 5.0 mi South 8.1 mph - N/A Rain Light Rain
3:15 AM 47.3 °F - 46.6 °F 97% 29.69 in 3.0 mi SSE 9.2 mph - 0.01 in Rain Light Rain
3:35 AM 47.3 °F - 46.8 °F 98% 29.70 in 2.5 mi South 8.1 mph - 0.01 in   Drizzle
3:55 AM 47.3 °F - 46.9 °F 99% 29.68 in 2.0 mi South 8.1 mph - 0.01 in   Light Drizzle
4:15 AM 47.3 °F - 47.1 °F 99% 29.67 in 1.5 mi South 6.9 mph - N/A   Overcast
4:34 AM 47.3 °F - 47.3 °F 100% 29.66 in 1.2 mi South 6.9 mph - N/A   Overcast
4:55 AM 48.2 °F - 47.8 °F 99% 29.65 in 1.2 mi South 8.1 mph - N/A   Overcast
5:15 AM 47.8 °F - 47.7 °F 99% 29.64 in 1.0 mi South 4.6 mph - N/A   Overcast
5:35 AM 48.0 °F - 47.8 °F 99% 29.63 in 0.8 mi SSE 3.5 mph - N/A   Overcast
5:55 AM 48.2 °F - 48.2 °F 100% 29.62 in 0.5 mi SE 4.6 mph - N/A Rain Light Rain
6:15 AM 48.6 °F - 48.6 °F 100% 29.61 in 0.5 mi SSE 8.1 mph - 0.01 in Rain Rain
6:35 AM 49.1 °F - 49.1 °F 100% 29.58 in 0.2 mi SSE 6.9 mph - 0.01 in   Drizzle
6:55 AM 50.0 °F - 50.0 °F 100% 29.58 in 0.2 mi SSE 4.6 mph - 0.01 in Rain Rain
7:14 AM 50.0 °F - 50.0 °F 100% 29.58 in 0.2 mi South 4.6 mph - N/A   Light Drizzle
7:35 AM 50.0 °F - 50.0 °F 100% 29.57 in 0.2 mi Calm Calm - N/A Rain Light Rain
7:55 AM 50.9 °F - 50.9 °F 100% 29.57 in 0.8 mi SSW 4.6 mph - 0.01 in Rain Light Rain
8:15 AM 50.9 °F - 50.9 °F 100% 29.56 in 0.5 mi South 3.5 mph - N/A Rain Light Rain
8:34 AM 50.9 °F - 50.9 °F 100% 29.57 in 1.0 mi SSW 4.6 mph - 0.03 in Rain Rain
8:55 AM 50.5 °F - 50.5 °F 100% 29.57 in 1.0 mi SSW 4.6 mph - 0.05 in Rain Rain
9:15 AM 50.9 °F - 50.9 °F 100% 29.57 in 1.0 mi Calm Calm - 0.03 in Rain Rain
9:35 AM 50.9 °F - 50.9 °F 100% 29.55 in 1.0 mi SSE 4.6 mph - 0.08 in Rain Heavy Rain
9:55 AM 50.5 °F - 50.5 °F 100% 29.55 in 1.2 mi Calm Calm - 0.11 in Rain Rain
10:15 AM 50.9 °F - 50.9 °F 100% 29.54 in 2.5 mi Calm Calm - 0.01 in Rain Light Rain
10:35 AM 50.4 °F - 50.4 °F 100% 29.54 in 1.0 mi SE 4.6 mph - 0.02 in Rain Light Rain
10:55 AM 50.5 °F - 50.5 °F 100% 29.52 in 2.5 mi Calm Calm - 0.03 in Rain Light Rain
11:14 AM 50.7 °F - 50.5 °F 99% 29.51 in 2.5 mi Calm Calm - N/A Rain Light Rain
11:35 AM 50.9 °F - 50.7 °F 99% 29.50 in 1.2 mi ESE 3.5 mph - 0.01 in Rain Light Rain
11:55 AM 50.9 °F - 50.9 °F 100% 29.49 in 0.2 mi SE 3.5 mph - 0.01 in Rain Rain
12:15 PM 51.4 °F - 51.4 °F 100% 29.48 in 0.2 mi Calm Calm - N/A   Drizzle
12:35 PM 51.4 °F - 51.4 °F 100% 29.47 in 0.2 mi ESE 4.6 mph - N/A   Drizzle
12:55 PM 51.8 °F - 51.8 °F 100% 29.46 in 0.2 mi SE 3.5 mph - N/A Fog Fog
1:15 PM 52.0 °F - 52.0 °F 100% 29.44 in 0.2 mi Calm Calm - N/A Rain Heavy Rain
1:35 PM 52.2 °F - 52.2 °F 100% 29.42 in 0.8 mi Calm Calm - 0.02 in Rain Rain
1:55 PM 52.5 °F - 52.5 °F 100% 29.40 in 3.0 mi Calm Calm - 0.04 in Rain Light Rain
2:14 PM 52.3 °F - 52.3 °F 100% 29.38 in 2.5 mi East 4.6 mph - 0.04 in Rain Heavy Rain
2:34 PM 52.7 °F - 52.5 °F 99% 29.37 in 3.0 mi ENE 4.6 mph - 0.10 in Rain Rain
2:55 PM 52.3 °F - 52.3 °F 100% 29.36 in 1.8 mi East 4.6 mph - 0.10 in Rain Rain
3:15 PM 52.7 °F - 52.7 °F 100% 29.34 in 2.0 mi ESE 5.8 mph - 0.02 in   Heavy Drizzle
3:34 PM 52.3 °F - 52.2 °F 99% 29.33 in 3.0 mi East 5.8 mph - 0.02 in   Drizzle
3:55 PM 52.3 °F - 52.0 °F 99% 29.33 in 4.0 mi East 4.6 mph - 0.02 in   Drizzle
4:15 PM 52.0 °F - 51.8 °F 99% 29.32 in 3.0 mi ENE 3.5 mph - 0.02 in Rain Heavy Rain
4:34 PM 51.8 °F - 51.4 °F 99% 29.30 in 2.0 mi East 4.6 mph - 0.02 in   Drizzle
4:55 PM 51.8 °F - 51.4 °F 99% 29.28 in 2.0 mi ENE 6.9 mph - 0.02 in   Light Drizzle
5:14 PM 51.4 °F - 51.3 °F 99% 29.28 in 2.5 mi East 4.6 mph - N/A   Overcast
5:35 PM 51.1 °F - 50.9 °F 99% 29.27 in 7.0 mi East 5.8 mph - N/A   Overcast
5:55 PM 50.9 °F - 50.9 °F 100% 29.26 in 7.0 mi ENE 5.8 mph - N/A   Overcast
6:14 PM 50.9 °F - 50.7 °F 99% 29.25 in 4.0 mi ENE 3.5 mph - 0.01 in Rain Light Rain
6:35 PM 50.5 °F - 50.5 °F 100% 29.24 in 4.0 mi NE 3.5 mph - 0.04 in Rain Rain
6:55 PM 50.4 °F - 50.4 °F 100% 29.22 in 4.0 mi ENE 5.8 mph - 0.05 in Rain Light Rain
7:13 PM 50.0 °F - 50.0 °F 100% 29.21 in 2.5 mi NNE 5.8 mph - 0.03 in Rain Rain
7:35 PM 50.0 °F - 50.0 °F 100% 29.20 in 5.0 mi NE 5.8 mph - 0.08 in Rain Light Rain
7:55 PM 50.0 °F - 50.0 °F 100% 29.19 in 3.0 mi NNE 3.5 mph - 0.10 in Rain Rain
8:15 PM 49.8 °F - 49.8 °F 100% 29.18 in 7.0 mi NNE 4.6 mph - 0.02 in Rain Rain
8:35 PM 49.6 °F - 49.6 °F 100% 29.17 in 5.0 mi NNE 4.6 mph - 0.05 in Rain Rain
8:54 PM 49.5 °F - 49.5 °F 100% 29.14 in 5.0 mi NE 5.8 mph - 0.07 in Rain Rain
9:15 PM 49.3 °F - 49.3 °F 100% 29.13 in 3.0 mi North 4.6 mph - 0.01 in Rain Light Rain
9:35 PM 49.1 °F - 49.1 °F 100% 29.12 in 5.0 mi North 4.6 mph - 0.03 in Rain Rain
9:54 PM 49.1 °F - 49.1 °F 100% 29.10 in 7.0 mi North 4.6 mph - 0.06 in Rain Rain
10:15 PM 48.7 °F - 48.7 °F 100% 29.09 in 7.0 mi North 3.5 mph - 0.01 in Rain Light Rain
10:35 PM 48.7 °F - 48.7 °F 100% 29.08 in 10.0 mi North 5.8 mph - 0.02 in Rain Light Rain
10:55 PM 48.9 °F - 48.9 °F 100% 29.09 in 10.0 mi Calm Calm - 0.02 in Rain Light Rain
11:15 PM 48.7 °F - 48.7 °F 100% 29.09 in 7.0 mi NW 4.6 mph - 0.01 in Rain Rain
11:35 PM 49.1 °F - 49.1 °F 100% 29.06 in 7.0 mi NNW 5.8 mph - 0.05 in Rain Rain
11:55 PM 48.7 °F - 48.7 °F 100% 29.03 in 5.0 mi NNW 6.9 mph - 0.07 in Rain Light Rain